Preview of NWS' New Version of Forecast
This preview is not operational and should not be used for support decisions.

Regional Weather Roundup (RWR)

Issued by National Weather Service (NWS)

                            
000
ASUS45 KCYS 190210
RWRWY 

WYOMING REGIONAL WEATHER ROUNDUP
NATIONAL WEATHER SERVICE CHEYENNE WY
800 PM MDT MON MAR 18 2019

NOTE:  "FAIR" INDICATES FEW OR NO CLOUDS BELOW 12,000 FEET
WITH NO SIGNIFICANT WEATHER AND/OR OBSTRUCTIONS TO VISIBILITY.

WYZ001-190300-
YELLOWSTONE NATIONAL PARK
  
CITY           SKY/WX    TMP DP  RH WIND       PRES   REMARKS
LK YELLOWSTONE   N/A     29  12  49 VRB6      30.24R WCI  23          
W YELLOWSTONE  NOT AVBL                                               

$$
WYZ002>013-054>058-071-098>099-190300-
NORTHERN WYOMING
  
CITY           SKY/WX    TMP DP  RH WIND       PRES   REMARKS
JACKSON        FAIR      31  19  61 E3        30.19                   
CODY           FAIR      35  19  52 NE6       30.23S WCI  30          
GREYBULL       FAIR      44  17  33 NW16G23   30.18S                  
WORLAND        FAIR      41  21  44 NW10      30.19R                  
SHERIDAN       FAIR      37  26  64 W9        30.18F WCI  30          
BUFFALO        FAIR      36  20  52 W6        30.17F WCI  31          
GILLETTE       FAIR      34  28  79 W12       30.16R WCI  25          
HULETT         FAIR      36  27  69 SW5       30.16  WCI  32          
NEWCASTLE      FAIR      32  27  80 N6        30.17  WCI  26          

$$
WYZ014>020-022>026-101>103-190300-
CENTRAL WYOMING
  
CITY           SKY/WX    TMP DP  RH WIND       PRES   REMARKS
BIG PINEY      FAIR      23  16  74 CALM      30.22R                  
PINEDALE       FAIR      23  18  80 CALM      30.23                   
DUBOIS         FAIR      32  18  55 S7        30.18  WCI  26          
LANDER         MOCLDY    38  20  48 N8        30.19R WCI  32          
RIVERTON       MOCLDY    37  21  52 NE7       30.20R WCI  32          
CASPER         FAIR      32  26  78 W5        30.19R WCI  27          
DOUGLAS        FAIR      34  28  79 N5        30.19R WCI  30          

$$
WYZ021-027>030-104>119-190300-
SOUTHERN WYOMING
  
CITY           SKY/WX    TMP DP  RH WIND       PRES   REMARKS
EVANSTON       FAIR      25  17  72 N8        30.20R WCI  16          
KEMMERER       FAIR      28  19  69 S5        30.21  WCI  23          
ROCK SPRINGS   FAIR      27  20  75 W5        30.21R WCI  22          
DIXON          FAIR      28  20  72 SE3       30.22S                  
RAWLINS        FAIR      26  21  81 N3        30.21R                  
SARATOGA       FAIR      28  21  74 CALM      30.21R                  
LARAMIE        FAIR      26  21  81 CALM      30.17R                  
CHEYENNE       FAIR      34  28  79 N9        30.16R WCI  27          
TORRINGTON     FAIR      40  30  67 N6        30.16R                  
PINE BLUFFS    FAIR      34  28  80 NW6       30.17S WCI  29          

$$